When you browse on this site, cookies collect data to enhance your experience and personalize the content and advertising you see.
Visit our Privacy Policy to learn more. By continuing to use the site, you agree to this use of cookies and data.
  • In Portugal
  • List of Countries
  • For 7 days
  • Water Temperature
  • Weather Map
  • Weather Widgets
  • user-avatar
    Login

    Hourly Weather Gulevichi

    Today, 18 September, Wednesday

    Time Temperature Precipitation Wind Pressure Humidity
    00:00 +7°C° 0.2 mm 4 mps 735 mmHg 90%
    01:00 +7°C° 0.2 mm 4 mps 735 mmHg 90%
    02:00 +8°C° 0 mm 3 mps 735 mmHg 92%
    03:00 +6°C° 1.3 mm 4 mps 735 mmHg 91%
    04:00 +6°C° 1.3 mm 5 mps 735 mmHg 91%
    05:00 +4°C° 1.3 mm 6 mps 734 mmHg 91%
    06:00 +4°C° 0.4 mm 6 mps 735 mmHg 90%
    07:00 +4°C° 0.4 mm 6 mps 735 mmHg 89%
    08:00 +5°C° 0 mm 6 mps 736 mmHg 88%
    09:00 +5°C° 0.1 mm 6 mps 737 mmHg 85%
    10:00 +7°C° 0.1 mm 6 mps 737 mmHg 82%
    11:00 +7°C° 0.1 mm 6 mps 738 mmHg 79%
    12:00 +7°C° 0.1 mm 6 mps 738 mmHg 78%
    13:00 +8°C° 0.1 mm 6 mps 738 mmHg 77%
    14:00 +8°C° 0.1 mm 7 mps 739 mmHg 76%
    15:00 +8°C° 0.1 mm 6 mps 739 mmHg 75%
    16:00 +9°C° 0.1 mm 5 mps 740 mmHg 75%
    17:00 +9°C° 0.1 mm 5 mps 741 mmHg 75%
    18:00 +8°C° 0.2 mm 5 mps 741 mmHg 79%
    19:00 +7°C° 0.2 mm 5 mps 742 mmHg 84%
    20:00 +7°C° 0.2 mm 6 mps 742 mmHg 89%
    21:00 +7°C° 0.2 mm 5 mps 743 mmHg 90%
    22:00 +7°C° 0.2 mm 5 mps 743 mmHg 91%
    23:00 +7°C° 0.2 mm 5 mps 743 mmHg 92%

    Tomorrow, 19 September, Thursday

    Time Temperature Precipitation Wind Pressure Humidity
    00:00 +7°C° 0 mm 5 mps 743 mmHg 91%
    01:00 +7°C° 0 mm 5 mps 744 mmHg 91%
    02:00 +7°C° 0 mm 5 mps 744 mmHg 90%
    03:00 +7°C° 0 mm 5 mps 744 mmHg 90%
    04:00 +7°C° 0 mm 5 mps 745 mmHg 90%
    05:00 +7°C° 0 mm 5 mps 745 mmHg 90%
    06:00 +7°C° 0 mm 5 mps 745 mmHg 89%
    07:00 +7°C° 0 mm 5 mps 745 mmHg 89%
    08:00 +7°C° 0 mm 5 mps 746 mmHg 88%
    09:00 +7°C° 0 mm 5 mps 746 mmHg 85%
    10:00 +8°C° 0 mm 5 mps 747 mmHg 82%
    11:00 +8°C° 0 mm 5 mps 747 mmHg 79%
    12:00 +9°C° 0 mm 5 mps 747 mmHg 77%
    13:00 +10°C° 0 mm 4 mps 747 mmHg 74%
    14:00 +10°C° 0 mm 4 mps 747 mmHg 71%
    15:00 +11°C° 0 mm 4 mps 747 mmHg 70%
    16:00 +11°C° 0 mm 3 mps 747 mmHg 69%
    17:00 +11°C° 0 mm 3 mps 748 mmHg 68%
    18:00 +10°C° 0 mm 3 mps 747 mmHg 74%
    19:00 +8°C° 0 mm 2 mps 747 mmHg 79%
    20:00 +7°C° 0 mm 2 mps 747 mmHg 85%
    21:00 +7°C° 0.1 mm 3 mps 748 mmHg 87%
    22:00 +7°C° 0.1 mm 3 mps 748 mmHg 89%
    23:00 +7°C° 0.1 mm 3 mps 748 mmHg 91%

    Day after tomorrow, 20 September, Friday

    Time Temperature Precipitation Wind Pressure Humidity
    00:00 +5°C° 0 mm 3 mps 748 mmHg 93%
    01:00 +5°C° 0 mm 4 mps 748 mmHg 94%
    02:00 +5°C° 0 mm 4 mps 747 mmHg 95%
    03:00 +5°C° 0 mm 4 mps 748 mmHg 92%
    04:00 +5°C° 0 mm 5 mps 748 mmHg 89%
    05:00 +6°C° 0 mm 5 mps 748 mmHg 86%
    06:00 +6°C° 0 mm 5 mps 748 mmHg 86%
    07:00 +5°C° 0 mm 6 mps 748 mmHg 86%
    08:00 +4°C° 0 mm 6 mps 749 mmHg 86%
    09:00 +5°C° 0 mm 6 mps 749 mmHg 81%
    10:00 +7°C° 0 mm 6 mps 749 mmHg 75%
    11:00 +7°C° 0 mm 6 mps 750 mmHg 70%
    12:00 +8°C° 0.1 mm 6 mps 750 mmHg 64%
    13:00 +9°C° 0.1 mm 6 mps 750 mmHg 58%
    14:00 +10°C° 0.1 mm 6 mps 750 mmHg 52%
    15:00 +10°C° 0 mm 5 mps 750 mmHg 54%
    16:00 +9°C° 0 mm 5 mps 750 mmHg 55%
    17:00 +10°C° 0 mm 4 mps 750 mmHg 57%
    18:00 +7°C° 0 mm 4 mps 751 mmHg 63%
    19:00 +7°C° 0 mm 3 mps 751 mmHg 69%
    20:00 +4°C° 0 mm 3 mps 751 mmHg 75%
    21:00 +4°C° 0 mm 3 mps 751 mmHg 78%
    22:00 +4°C° 0 mm 2 mps 752 mmHg 81%
    23:00 +4°C° 0 mm 2 mps 752 mmHg 84%

    21 September, Saturday

    Time Temperature Precipitation Wind Pressure Humidity
    00:00 +4°C° 0 mm 2 mps 752 mmHg 85%
    01:00 +3°C° 0 mm 2 mps 752 mmHg 85%
    02:00 +3°C° 0 mm 2 mps 752 mmHg 86%
    03:00 +3°C° 0 mm 2 mps 752 mmHg 84%
    04:00 +3°C° 0 mm 3 mps 752 mmHg 82%
    05:00 +3°C° 0 mm 3 mps 751 mmHg 80%
    06:00 +4°C° 0 mm 3 mps 751 mmHg 77%
    07:00 +5°C° 0 mm 4 mps 751 mmHg 74%
    08:00 +6°C° 0 mm 4 mps 750 mmHg 72%
    09:00 +6°C° 0.1 mm 5 mps 750 mmHg 74%
    10:00 +7°C° 0.1 mm 5 mps 750 mmHg 76%
    11:00 +7°C° 0.1 mm 6 mps 750 mmHg 79%
    12:00 +8°C° 0.1 mm 6 mps 750 mmHg 81%
    13:00 +9°C° 0.1 mm 6 mps 749 mmHg 83%
    14:00 +10°C° 0.1 mm 7 mps 749 mmHg 85%
    15:00 +10°C° 0 mm 6 mps 749 mmHg 84%
    16:00 +11°C° 0 mm 6 mps 749 mmHg 83%
    17:00 +12°C° 0 mm 5 mps 748 mmHg 82%
    18:00 +12°C° 0 mm 5 mps 748 mmHg 83%
    19:00 +10°C° 0 mm 5 mps 748 mmHg 84%
    20:00 +10°C° 0 mm 5 mps 748 mmHg 85%
    21:00 +10°C° 0 mm 5 mps 748 mmHg 87%
    22:00 +9°C° 0 mm 5 mps 748 mmHg 88%
    23:00 +9°C° 0 mm 5 mps 748 mmHg 89%

    22 September, Sunday

    Time Temperature Precipitation Wind Pressure Humidity
    00:00 +9°C° 0 mm 5 mps 748 mmHg 90%
    01:00 +9°C° 0 mm 5 mps 748 mmHg 92%
    02:00 +9°C° 0 mm 5 mps 747 mmHg 93%
    03:00 +9°C° 0 mm 5 mps 747 mmHg 92%
    04:00 +9°C° 0 mm 5 mps 747 mmHg 91%
    05:00 +9°C° 0 mm 6 mps 747 mmHg 90%
    06:00 +10°C° 0 mm 5 mps 747 mmHg 88%
    07:00 +10°C° 0 mm 5 mps 747 mmHg 86%
    08:00 +10°C° 0 mm 5 mps 747 mmHg 84%
    09:00 +12°C° 0 mm 5 mps 748 mmHg 82%
    10:00 +13°C° 0 mm 5 mps 748 mmHg 80%
    11:00 +13°C° 0 mm 5 mps 748 mmHg 77%
    12:00 +14°C° 0 mm 4 mps 748 mmHg 76%
    13:00 +14°C° 0 mm 4 mps 748 mmHg 75%
    14:00 +14°C° 0 mm 4 mps 748 mmHg 73%
    15:00 +14°C° 0 mm 3 mps 748 mmHg 73%
    16:00 +14°C° 0 mm 3 mps 748 mmHg 72%
    17:00 +15°C° 0 mm 2 mps 748 mmHg 72%
    18:00 +13°C° 0 mm 2 mps 748 mmHg 74%
    19:00 +10°C° 0 mm 2 mps 749 mmHg 75%
    20:00 +9°C° 0 mm 2 mps 749 mmHg 77%
    21:00 +8°C° 0 mm 2 mps 749 mmHg 72%
    22:00 +7°C° 0 mm 2 mps 749 mmHg 68%
    23:00 +7°C° 0 mm 3 mps 749 mmHg 64%

    23 September, Monday

    Time Temperature Precipitation Wind Pressure Humidity
    00:00 +5°C° 0 mm 3 mps 749 mmHg 64%
    01:00 +5°C° 0 mm 3 mps 748 mmHg 65%
    02:00 +5°C° 0 mm 3 mps 748 mmHg 66%
    03:00 +5°C° 0 mm 3 mps 748 mmHg 67%
    04:00 +4°C° 0 mm 3 mps 747 mmHg 69%
    05:00 +4°C° 0 mm 4 mps 747 mmHg 71%
    06:00 +5°C° 0 mm 4 mps 746 mmHg 72%
    07:00 +6°C° 0 mm 4 mps 746 mmHg 74%
    08:00 +7°C° 0 mm 5 mps 745 mmHg 75%
    09:00 +9°C° 0 mm 5 mps 744 mmHg 73%
    10:00 +12°C° 0 mm 5 mps 744 mmHg 70%
    11:00 +14°C° 0 mm 5 mps 743 mmHg 67%
    12:00 +14°C° 0 mm 5 mps 743 mmHg 68%
    13:00 +14°C° 0 mm 4 mps 742 mmHg 68%
    14:00 +14°C° 0 mm 4 mps 741 mmHg 69%
    15:00 +14°C° 0 mm 3 mps 740 mmHg 69%
    16:00 +14°C° 0 mm 3 mps 740 mmHg 70%
    17:00 +14°C° 0 mm 3 mps 739 mmHg 70%
    18:00 +13°C° 0 mm 2 mps 739 mmHg 73%
    19:00 +12°C° 0 mm 2 mps 739 mmHg 75%
    20:00 +10°C° 0 mm 2 mps 739 mmHg 78%
    21:00 +10°C° 0 mm 1 mps 738 mmHg 81%
    22:00 +10°C° 0 mm 1 mps 738 mmHg 83%
    23:00 +9°C° 0 mm 1 mps 738 mmHg 85%
    Show more